Regional Weather Roundup
Issued by NWS

Home | Current Version | Previous Version | Graphics & Text | Print | Product List | Glossary On
Versions: 1 2 3 4 5 6 7 8 9 10 11 12 13 14 15 16 17 18 19 20 21 22 23 24 25 26 27 28 29 30 31 32 33 34 35 36 37 38 39 40 41 42 43 44 45 46 47 48 49 50
000
ASUS43 KBIS 272220
RWRND

NORTH DAKOTA REGIONAL WEATHER ROUNDUP
NATIONAL WEATHER SERVICE BISMARCK ND
500 PM CDT SUN JUL 27 2014

NOTE: "FAIR" INDICATES FEW OR NO CLOUDS BELOW 12,000 FEET WITH NO
SIGNIFICANT WEATHER AND/OR OBSTRUCTIONS TO VISIBILITY.


NDZ001>003-009>011-017-272300-
NORTHWEST NORTH DAKOTA

CITY           SKY/WX    TMP DP  RH WIND       PRES   REMARKS
WILLISTON      SUNNY     75  51  43 N10       30.29S
MINOT          CLOUDY    67  50  54 NW9       30.27S
MINOT AFB      PTSUNNY   67  51  55 N12       30.27S
$$

NDZ018>021-031>035-040>046-272300-
SOUTHWEST NORTH DAKOTA

CITY           SKY/WX    TMP DP  RH WIND       PRES   REMARKS
BISMARCK       CLOUDY    68  51  54 N13G20    30.28R
DICKINSON      MOSUNNY   73  51  46 NW9       30.28F
GARRISON         N/A     69  50  50 N14       30.28F
HETTINGER ARPT MOSUNNY   72  53  51 N8        30.30F
$$

NDZ004>008-012>016-024-026-027-054-272300-
NORTHEAST NORTH DAKOTA

CITY           SKY/WX    TMP DP  RH WIND       PRES   REMARKS
GRAND FORKS    CLOUDY    67  57  70 N10G18    30.16S
GRND FRKS AFB  CLOUDY    68  58  68 N13       30.18R
DEVILS LAKE    CLOUDY    64  52  63 N10       30.22S
$$

NDZ022-023-025-028>030-036>039-047>053-272300-
SOUTHEAST NORTH DAKOTA

CITY           SKY/WX    TMP DP  RH WIND       PRES   REMARKS
FARGO          CLOUDY    66  57  72 NW17      30.15R
JAMESTOWN      CLOUDY    65  54  67 N14       30.22R
$$




USA.gov is the U.S. government's official web portal to all federal, state and local government web resources and services.